Sanford, FL

1:30 AM EDT on August 27, 2016 (GMT -0400)
Orlando Sanford

Weather History for KSFB - February, 2014

Change the Weather History Date:

Wednesday, February 12, 2014

  Actual Average Record
Temperature  
Mean Temperature 67 °F -  
Max Temperature 79 °F 71 °F 84 °F (1965)
Min Temperature 55 °F 47 °F 32 °F (2012)
Cooling Degree Days 2    
Growing Degree Days 17 (Base 50)    
Moisture  
Dew Point 58 °F    
Average Humidity 89    
Maximum Humidity 100    
Minimum Humidity 50    
Precipitation  
Precipitation 0.79 in - - ()
Sea Level Pressure  
Sea Level Pressure 29.91 in    
Wind  
Wind Speed 8 mph (NNW)    
Max Wind Speed 22 mph    
Max Gust Speed 34 mph    
Visibility 6 miles    
Events Rain , Thunderstorm    
Averages and records for this station are not official NWS values.
T = Trace of Precipitation, MM = Missing Value Source: NWS Daily Summary

Daily Weather History Graph

Daily Weather History Graph

Search for Another Location

Airport or City:

Trip Planner

Search our weather history database for the weather conditions in past years. The results will help you decide how hot, cold, wet, or windy it might be!

Date:

Astronomy

Feb. 12, 2014 Rise Set
Actual Time 7:05 AM EST 6:12 PM EST
Civil Twilight 6:41 AM EST 6:37 PM EST
Nautical Twilight 6:13 AM EST 7:05 PM EST
Astronomical Twilight 5:46 AM EST 7:32 PM EST
Moon 4:28 PM EST (2/12) 5:17 AM EST (2/12)
Length of Visible Light 11h 55m
Length of Day
11h 07m
Waxing Gibbous, 95% of the Moon is Illuminated
Feb 12
Waxing Gibbous
Feb 14
Full
Feb 22
Last Quarter
Mar 1
New
Mar 8
First Quarter

Hourly Weather History & Observations

Time (EST) Temp. Dew Point Humidity Pressure Visibility Wind Dir Wind Speed Gust Speed Precip Events Conditions
12:23 AM 60.8 °F 59.0 °F 94% 30.06 in 8.0 mi North 6.9 mph - N/A   Overcast
12:53 AM 61.0 °F 59.0 °F 93% 30.05 in 7.0 mi North 8.1 mph - N/A   Overcast
1:53 AM 61.0 °F 60.1 °F 97% 30.03 in 6.0 mi North 6.9 mph - N/A   Overcast
2:32 AM 60.8 °F 60.8 °F 100% 30.01 in 5.0 mi North 8.1 mph - N/A   Overcast
2:53 AM 60.1 °F 60.1 °F 100% 30.00 in 4.0 mi North 9.2 mph - N/A   Overcast
3:29 AM 60.8 °F 59.0 °F 94% 30.00 in 2.5 mi North 6.9 mph - N/A   Overcast
3:53 AM 59.0 °F 59.0 °F 100% 30.00 in 2.0 mi North 6.9 mph - N/A   Overcast
4:17 AM 57.2 °F 57.2 °F 100% 30.00 in 1.5 mi North 10.4 mph - N/A   Overcast
4:53 AM 57.9 °F 57.9 °F 100% 29.99 in 1.5 mi North 8.1 mph - N/A   Overcast
5:37 AM 57.2 °F 57.2 °F 100% 29.99 in 2.5 mi NNW 6.9 mph - N/A   Overcast
5:45 AM 57.2 °F 57.2 °F 100% 30.00 in 3.0 mi North 5.8 mph - N/A   Overcast
5:53 AM 57.9 °F 57.9 °F 100% 30.00 in 3.0 mi NNW 6.9 mph - N/A   Overcast
6:53 AM 57.9 °F 57.9 °F 100% 30.01 in 5.0 mi NNW 5.8 mph - N/A   Overcast
7:28 AM 59.0 °F 57.2 °F 94% 30.00 in 4.0 mi NNW 5.8 mph - N/A   Overcast
7:53 AM 59.0 °F 57.9 °F 96% 30.00 in 4.0 mi North 4.6 mph - N/A   Overcast
8:53 AM 60.1 °F 57.9 °F 93% 30.01 in 4.0 mi West 3.5 mph - N/A   Overcast
9:21 AM 60.8 °F 59.0 °F 94% 30.01 in 2.5 mi Calm Calm - N/A   Overcast
9:53 AM 63.0 °F 60.1 °F 90% 30.00 in 2.5 mi Calm Calm - N/A   Overcast
9:59 AM 64.4 °F 60.8 °F 88% 30.00 in 6.0 mi Calm Calm - N/A   Overcast
10:07 AM 64.4 °F 60.8 °F 88% 30.00 in 2.5 mi Calm Calm - N/A   Haze
10:14 AM 64.4 °F 60.8 °F 88% 29.99 in 7.0 mi Calm Calm - N/A   Mostly Cloudy
10:27 AM 66.2 °F 60.8 °F 83% 29.98 in 7.0 mi Variable 4.6 mph - N/A   Partly Cloudy
10:53 AM 70.0 °F 62.1 °F 76% 29.97 in 10.0 mi South 9.2 mph - N/A   Clear
11:53 AM 75.0 °F 59.0 °F 57% 29.95 in 10.0 mi South 10.4 mph - N/A   Clear
12:53 PM 77.0 °F 57.0 °F 50% 29.90 in 10.0 mi SSW 6.9 mph - N/A   Clear
1:53 PM 79.0 °F 59.0 °F 50% 29.85 in 10.0 mi SSW 13.8 mph - N/A   Clear
2:53 PM 79.0 °F 60.1 °F 52% 29.83 in 10.0 mi SSW 8.1 mph - N/A   Clear
3:53 PM 78.1 °F 61.0 °F 56% 29.80 in 10.0 mi SSW 5.8 mph - N/A   Mostly Cloudy
4:53 PM 78.1 °F 61.0 °F 56% 29.78 in 10.0 mi SSE 4.6 mph - N/A   Mostly Cloudy
5:34 PM 62.6 °F 57.2 °F 82% 29.77 in 10.0 mi ENE 21.9 mph 27.6 mph N/A   Overcast
5:53 PM 60.1 °F 55.9 °F 86% 29.74 in 10.0 mi NE 19.6 mph - N/A   Overcast
5:58 PM 60.8 °F 55.4 °F 82% 29.79 in 10.0 mi North 11.5 mph 25.3 mph N/A Thunderstorm Thunderstorm
6:02 PM 60.8 °F 55.4 °F 82% 29.87 in 1.0 mi WNW 19.6 mph 34.5 mph 0.12 in Thunderstorm Unknown
6:12 PM 57.2 °F 55.4 °F 94% 29.83 in 1.0 mi NNW 15.0 mph 24.2 mph 0.31 in Rain , Thunderstorm Heavy Thunderstorms and Rain
6:23 PM 57.2 °F 57.2 °F 100% 29.85 in 1.0 mi NNW 15.0 mph - 0.49 in Rain , Thunderstorm Heavy Thunderstorms and Rain
6:30 PM 57.2 °F 57.2 °F 100% 29.87 in 1.0 mi NW 19.6 mph 25.3 mph 0.53 in Rain , Thunderstorm Heavy Thunderstorms and Rain
6:38 PM 57.2 °F 55.4 °F 94% 29.85 in 1.0 mi NNW 15.0 mph 25.3 mph 0.55 in Rain , Thunderstorm Heavy Thunderstorms and Rain
6:53 PM 55.9 °F 55.0 °F 97% 29.86 in 1.0 mi NNW 9.2 mph 19.6 mph 0.59 in Rain , Thunderstorm Thunderstorms and Rain
7:15 PM 55.4 °F 55.4 °F 100% 29.85 in 6.0 mi NNW 6.9 mph - 0.06 in Rain Rain
7:53 PM 55.9 °F 55.0 °F 97% 29.84 in 8.0 mi WNW 3.5 mph - 0.09 in Rain Light Rain
8:53 PM 57.0 °F 55.9 °F 96% 29.80 in 6.0 mi SE 6.9 mph - 0.10 in Rain Rain
9:33 PM 57.2 °F 57.2 °F 100% 29.76 in 10.0 mi South 4.6 mph - 0.01 in   Mostly Cloudy
9:53 PM 59.0 °F 59.0 °F 100% 29.75 in 10.0 mi South 3.5 mph - 0.01 in   Partly Cloudy
10:53 PM 61.0 °F 60.1 °F 97% 29.72 in 10.0 mi South 8.1 mph - N/A   Clear
11:53 PM 61.0 °F 60.1 °F 97% 29.69 in 10.0 mi South 8.1 mph - N/A   Clear